[[{"header":{"parameterUnit":"m.s-1","parameterCategory":1,"la1":30.2991,"la2":30.254,"lo1":-89.0895,"lo2":-89.0444,"dy":0.0017,"dx":0.0017,"nx":28,"ny":28,"refTime":"2025-03-14T21:00:00:Z","depth":0,"parameterNumber":2,"parameterNumberName":"U-component_of_WINDS"},"data":[0,0,0,0,0,0,0,0,0,0,0,0,0,0,0,0,0,0,0,0,0,0,0,0,0,0,0,0,0,0,0,0,0,0,0,0,0,0,0,0,0,0,0,0,0,0,0,0,0,0,0,0,0,0,0,0,0,0,-5.3661,-5.3662,0,-5.3746,-5.3747,-5.3748,-5.3738,-5.3737,-5.3735,-5.3734,-5.3821,-5.3824,-5.3828,0,0,0,0,0,0,0,0,0,0,0,0,0,-5.349,-5.3493,-5.3661,-5.3662,-5.3663,-5.3746,-5.3747,-5.3748,-5.3738,-5.3737,-5.3735,-5.3733,-5.382,-5.3824,-5.3828,0,0,0,0,0,0,0,0,0,0,0,0,0,-5.3568,-5.3494,-5.366,-5.3668,-5.3669,-5.3745,-5.3747,-5.3748,-5.3739,-5.3737,-5.3735,-5.3733,-5.3818,-5.3823,-5.3829,-5.3902,0,0,-5.3845,-5.3847,0,0,0,0,0,0,0,0,-5.3564,-5.3574,-5.3666,-5.3668,-5.3669,-5.3729,-5.3718,-5.38,-5.3739,-5.3712,-5.3734,-5.3732,-5.3792,-5.3799,-5.382,-5.3906,-5.391,-5.3845,-5.3849,-5.3851,-5.3852,0,0,0,0,0,0,0,-5.3558,-5.3571,-5.3694,-5.3667,-5.3669,-5.3667,-5.3676,-5.3734,-5.3762,-5.3715,-5.3714,-5.3724,-5.3792,-5.3814,-5.3822,-5.3911,-5.3845,-5.385,-5.3853,-5.3855,-5.4062,-5.4064,0,0,0,0,0,0,-5.3551,-5.3566,-5.3692,-5.3697,-5.361,-5.3672,-5.3682,-5.3712,-5.3762,-5.3767,-5.3726,-5.3724,-5.3806,-5.3815,-5.3825,-5.3913,-5.3851,-5.3856,-5.3859,-5.406,-5.4062,-5.4065,0,0,0,0,0,0,-5.3547,-5.3562,-5.3688,-5.3631,-5.3647,-5.3677,-5.3711,-5.3715,-5.3737,-5.377,-5.3775,-5.3743,-5.3805,-5.3817,-5.3883,-5.3916,-5.3858,-5.3863,-5.4057,-5.406,-5.4064,-5.4091,0,0,0,0,0,0,-5.3542,-5.3561,-5.3589,-5.3632,-5.365,-5.3745,-5.3713,-5.3718,-5.3746,-5.3744,-5.3788,-5.3793,-5.3804,-5.3875,-5.3888,-5.3922,-5.3867,-5.4054,-5.4058,-5.4062,-5.4087,-5.4095,-5.4102,0,0,0,0,0,-5.3536,-5.3594,-5.3591,-5.3606,-5.3686,-5.3747,-5.3757,-5.3769,-5.3749,-5.3777,-5.3799,-5.3792,-5.3911,-5.3882,-5.3897,-5.3933,-5.4052,-5.4057,-5.4062,-5.4084,-5.4093,-5.4101,0,0,0,0,0,0,-5.3554,-5.3599,-5.3597,-5.367,-5.3705,-5.3745,-5.3781,-5.3779,-5.382,-5.3816,-5.3829,-5.3839,-5.3905,-5.3926,-5.3893,-5.4006,-5.3978,-5.3987,-5.399,-5.3999,-5.4006,-5.3999,-5.3872,0,0,0,0,0,-5.3566,-5.3612,-5.3649,-5.371,-5.3728,-5.3752,-5.3779,-5.3785,-5.3821,-5.3836,-5.3862,-5.3898,-5.3943,-5.3973,-5.4016,-5.4091,-5.41,-5.4123,-5.413,-5.4136,-5.4142,-5.4182,-5.4193,-5.4082,-5.4081,-5.4081,0,0,-5.3592,-5.3623,-5.3651,-5.3714,-5.3742,-5.3788,-5.3764,-5.3815,-5.3849,-5.3844,-5.3907,-5.3928,-5.3968,-5.4038,-5.4071,-5.4058,-5.4175,-5.4142,-5.4147,-5.415,-5.4189,-5.4199,-5.4208,-5.4085,-5.4084,-5.4084,0,0,-5.3663,-5.3691,-5.3744,-5.3773,-5.3815,-5.3831,-5.3843,-5.3885,-5.3898,-5.3962,-5.3959,-5.4,-5.4078,-5.4107,-5.4132,-5.4214,-5.4208,-5.4228,-5.4265,-5.4303,-5.4312,-5.432,-5.4348,-5.4358,-5.4235,-5.4235,-5.4235,0,-5.3689,-5.3759,-5.3772,-5.3823,-5.385,-5.3848,-5.3902,-5.3929,-5.3983,-5.4002,-5.3987,-5.4085,-5.4112,-5.4188,-5.4208,-5.4229,-5.4243,-5.4222,-5.431,-5.4318,-5.4325,-5.4352,-5.4363,-5.4237,-5.4237,-5.4236,-5.4236,0,-5.3789,-5.3838,-5.3876,-5.3928,-5.3961,-5.4013,-5.4033,-5.4064,-5.4068,-5.4085,-5.415,-5.4183,-5.4232,-5.4252,-5.4256,-5.4329,-5.4319,-5.4307,-5.4279,-5.4338,-5.4363,-5.4373,-5.424,-5.4239,-5.4238,-5.4238,0,0,-5.3872,-5.3931,-5.3944,-5.3968,-5.4015,-5.4053,-5.4105,-5.4153,-5.4179,-5.4217,-5.426,-5.4327,-5.4316,-5.4344,-5.4352,-5.4386,-5.4447,-5.437,-5.4371,-5.4382,-5.4528,-5.4536,-5.4547,-5.4445,-5.4447,-5.4449,-5.4524,0,-5.3946,-5.4037,-5.405,-5.4131,-5.4176,-5.4175,-5.422,-5.4253,-5.4271,-5.4311,-5.4331,-5.4377,-5.436,-5.4377,-5.4411,-5.4433,-5.4477,-5.4428,-5.4484,-5.4486,-5.4472,-5.4561,-5.4569,-5.4639,-5.4534,-5.4536,-5.4537,0,-5.4044,-5.4084,-5.4169,-5.421,-5.4229,-5.4269,-5.4315,-5.4354,-5.4392,-5.4402,-5.4434,-5.4437,-5.4491,-5.4462,-5.4535,-5.4501,-5.4526,-5.454,-5.4543,-5.4547,-5.4514,-5.4566,-5.4661,-5.4671,-5.4553,-5.4552,-5.4551,0,-5.4094,-5.417,-5.423,-5.4251,-5.43,-5.4328,-5.4349,-5.4385,-5.4414,-5.4454,-5.4472,-5.4518,-5.4543,-5.4578,-5.4594,-5.4571,-5.4666,-5.4638,-5.4675,-5.4674,-5.4693,-5.4692,-5.4792,-5.4712,-5.4712,-5.4711,-5.4711,0,-5.4174,-5.4226,-5.4253,-5.429,-5.4348,-5.4363,-5.4419,-5.444,-5.4472,-5.4513,-5.4516,-5.4554,-5.4573,-5.4614,-5.4627,-5.4685,-5.4696,-5.4706,-5.4708,-5.4705,-5.4703,-5.4719,-5.4714,-5.4714,-5.4714,-5.4713,-5.4713,0,-5.4238,-5.4259,-5.4325,-5.4366,-5.4377,-5.4418,-5.4453,-5.4489,-5.4507,-5.4558,-5.4571,-5.4599,-5.4648,-5.4667,-5.4727,-5.4735,-5.4801,-5.4801,-5.4788,-5.4789,-5.4824,-5.4819,-5.4937,-5.4952,-5.4863,-5.4864,-5.4865,0,-5.4287,-5.4327,-5.4373,-5.44,-5.4423,-5.4467,-5.4496,-5.4512,-5.4542,-5.4589,-5.4619,-5.4667,-5.4706,-5.4784,-5.4809,-5.4855,-5.4854,-5.4892,-5.4861,-5.4856,-5.4853,-5.485,-5.4853,-5.4897,-5.4898,-5.4899,-5.49,0,-5.4372,-5.438,-5.4422,-5.4467,-5.4502,-5.4538,-5.4574,-5.4596,-5.4618,-5.4651,-5.4701,-5.4731,-5.4792,-5.484,-5.4887,-5.4909,-5.4908,-5.491,-5.492,-5.4916,-5.4907,-5.4911,-5.4802,-5.4906,-5.4906,-5.4905,-5.4905,-5.4905,-5.4429,-5.4464,-5.4501,-5.4548,-5.4576,-5.4609,-5.4645,-5.4667,-5.4708,-5.4759,-5.4766,-5.4819,-5.4856,-5.4918,-5.4943,-5.4984,-5.4974,-5.499,-5.4993,-5.4997,-5.4998,-5.4901,-5.4993,-5.4993,-5.4992,-5.4992,-5.4992,0,-5.4512,-5.4536,-5.4579,-5.4628,-5.4665,-5.4661,-5.47,-5.4731,-5.4777,-5.4812,-5.485,-5.4907,-5.4953,-5.4983,-5.5029,-5.5057,-5.5057,-5.5068,-5.5065,-5.507,-5.5005,-5.4991,-5.5067,-5.5067,-5.5067,-5.5067,-5.5067,-5.5067,-5.456,-5.4618,-5.4631,-5.4704,-5.4727,-5.4779,-5.4801,-5.4832,-5.4859,-5.4922,-5.4961,-5.498,-5.5012,-5.5061,-5.5103,-5.5111,-5.5127,-5.5138,-5.5145,-5.5083,-5.5075,-5.5068,-5.5054,-5.5142,-5.5142,-5.5206,-5.5207,-5.5207]},{"header":{"parameterUnit":"m.s-1","parameterCategory":1,"la1":30.2991,"la2":30.254,"lo1":-89.0895,"lo2":-89.0444,"dy":0.0017,"dx":0.0017,"nx":28,"ny":28,"refTime":"2025-03-14T21:00:00:Z","depth":0,"parameterNumber":3,"parameterNumberName":"V-component_of_WINDS"},"data":[0,0,0,0,0,0,0,0,0,0,0,0,0,0,0,0,0,0,0,0,0,0,0,0,0,0,0,0,0,0,0,0,0,0,0,0,0,0,0,0,0,0,0,0,0,0,0,0,0,0,0,0,0,0,0,0,0,0,7.2121,7.2122,0,7.2273,7.2275,7.2276,7.2305,7.2304,7.2303,7.2301,7.245,7.2455,7.246,0,0,0,0,0,0,0,0,0,0,0,0,0,7.185,7.1854,7.212,7.2122,7.2124,7.2273,7.2275,7.2277,7.2305,7.2304,7.2302,7.2301,7.2449,7.2455,7.2461,0,0,0,0,0,0,0,0,0,0,0,0,0,7.1981,7.1856,7.212,7.2157,7.2161,7.2272,7.2275,7.2277,7.2305,7.2304,7.2302,7.23,7.2447,7.2454,7.2462,7.2545,0,0,7.2485,7.2488,0,0,0,0,0,0,0,0,7.1973,7.1991,7.2149,7.2154,7.216,7.2268,7.2234,7.2367,7.2306,7.2251,7.2301,7.2299,7.2391,7.2403,7.2435,7.2552,7.2558,7.2486,7.249,7.2494,7.2496,0,0,0,0,0,0,0,7.1964,7.1984,7.2181,7.2152,7.2158,7.2164,7.218,7.2259,7.2329,7.2255,7.2258,7.2276,7.2393,7.2428,7.2439,7.256,7.2486,7.2492,7.2497,7.25,7.2755,7.2757,0,0,0,0,0,0,7.195,7.1977,7.2176,7.2185,7.2061,7.217,7.2189,7.2235,7.2328,7.2341,7.2277,7.2276,7.2416,7.243,7.2444,7.255,7.2494,7.2501,7.2505,7.2753,7.2755,7.2758,0,0,0,0,0,0,7.1944,7.1967,7.217,7.2082,7.2108,7.2177,7.2229,7.2239,7.2274,7.2345,7.2356,7.23,7.2415,7.2433,7.2521,7.2555,7.2504,7.2511,7.275,7.2754,7.2757,7.276,0,0,0,0,0,0,7.1936,7.1965,7.1998,7.2082,7.2113,7.2245,7.2231,7.2243,7.2288,7.2288,7.2369,7.2381,7.2415,7.2509,7.2528,7.2565,7.2517,7.2747,7.2752,7.2756,7.2757,7.2763,7.2768,0,0,0,0,0,7.1926,7.1991,7.2,7.2023,7.2156,7.2247,7.2264,7.2304,7.229,7.2324,7.237,7.2378,7.2548,7.2518,7.254,7.2579,7.2745,7.275,7.2755,7.2754,7.2761,7.2767,0,0,0,0,0,0,7.1906,7.2002,7.2013,7.2108,7.2169,7.2252,7.2295,7.231,7.2374,7.2372,7.2417,7.2435,7.252,7.2558,7.2522,7.2665,7.2646,7.2655,7.2637,7.2645,7.265,7.2639,7.2523,0,0,0,0,0,7.1913,7.1981,7.206,7.2136,7.2167,7.2226,7.2266,7.2292,7.2357,7.2382,7.2434,7.2495,7.2562,7.2605,7.2671,7.2762,7.2781,7.28,7.2805,7.2809,7.2817,7.287,7.288,7.2774,7.2774,7.2774,0,0,7.1927,7.1988,7.2028,7.2134,7.2184,7.2252,7.2247,7.2318,7.2369,7.2392,7.2479,7.2519,7.259,7.268,7.2722,7.2714,7.2851,7.2816,7.2818,7.2824,7.2876,7.2886,7.2895,7.2777,7.2777,7.2776,0,0,7.1989,7.2041,7.2112,7.2163,7.2241,7.2281,7.2297,7.2378,7.2407,7.2495,7.2515,7.2574,7.2689,7.2739,7.2779,7.2862,7.2873,7.2882,7.291,7.2961,7.297,7.2977,7.3008,7.3019,7.2889,7.2889,7.2889,0,7.1996,7.2102,7.2145,7.2217,7.2263,7.229,7.2361,7.2408,7.2502,7.2533,7.2523,7.267,7.2719,7.2822,7.2843,7.2874,7.2894,7.2873,7.2965,7.2974,7.2981,7.3011,7.3023,7.289,7.289,7.289,7.289,0,7.2108,7.218,7.2227,7.2321,7.2372,7.2443,7.2496,7.2542,7.2564,7.2604,7.2694,7.2754,7.2833,7.2859,7.2879,7.2966,7.2959,7.2957,7.2938,7.2991,7.302,7.3032,7.2891,7.2891,7.2891,7.2891,0,0,7.216,7.2279,7.2296,7.234,7.2429,7.2485,7.2556,7.2637,7.2677,7.274,7.2802,7.2899,7.2899,7.2945,7.2971,7.3015,7.3079,7.3008,7.301,7.302,7.318,7.3182,7.3195,7.3087,7.3089,7.3091,7.3175,0,7.2234,7.2366,7.2408,7.2518,7.2586,7.2613,7.2676,7.2736,7.2775,7.2838,7.288,7.2949,7.2942,7.2971,7.3016,7.3062,7.3112,7.3056,7.3144,7.3147,7.3127,7.321,7.3212,7.3288,7.3186,7.3188,7.3189,0,7.2337,7.2407,7.2524,7.2606,7.2636,7.2692,7.277,7.283,7.2899,7.2924,7.2977,7.3,7.3075,7.3052,7.3157,7.3118,7.3156,7.3184,7.3188,7.3199,7.3172,7.3223,7.3313,7.3325,7.3207,7.3206,7.3204,0,7.2366,7.2488,7.2575,7.2611,7.2709,7.2748,7.279,7.2858,7.2904,7.2971,7.3002,7.3076,7.3116,7.3173,7.3215,7.3194,7.3316,7.3296,7.3339,7.3338,7.3364,7.3362,7.3463,7.3387,7.3387,7.3386,7.3386,0,7.2444,7.2515,7.259,7.2643,7.2724,7.2771,7.2848,7.2891,7.2952,7.3013,7.304,7.3096,7.3148,7.3212,7.3245,7.3327,7.3345,7.3367,7.3375,7.3366,7.3363,7.3392,7.3388,7.339,7.3389,7.3388,7.3388,0,7.249,7.2543,7.264,7.2725,7.2749,7.2804,7.2877,7.2929,7.297,7.3047,7.3068,7.3132,7.3208,7.3256,7.3351,7.3374,7.3465,7.347,7.3442,7.3447,7.3488,7.3484,7.3611,7.363,7.354,7.3541,7.3541,0,7.2538,7.2594,7.2686,7.2731,7.2774,7.2844,7.2893,7.2941,7.299,7.3074,7.3116,7.3195,7.326,7.3381,7.3434,7.3508,7.3516,7.3556,7.3527,7.3517,7.3519,7.3516,7.3522,7.3561,7.3561,7.3562,7.3562,0,7.2617,7.2641,7.271,7.279,7.2848,7.2912,7.2976,7.301,7.3069,7.3122,7.3202,7.3253,7.3353,7.3431,7.351,7.3551,7.3567,7.3571,7.3585,7.3577,7.3559,7.3571,7.3457,7.3568,7.3567,7.3567,7.3567,7.3567,7.2666,7.2718,7.2792,7.2869,7.2923,7.2983,7.3037,7.3086,7.3154,7.3241,7.3264,7.3348,7.3417,7.3525,7.3568,7.3634,7.3628,7.3648,7.3653,7.3658,7.366,7.3548,7.3648,7.3648,7.3647,7.3647,7.3647,0,7.2748,7.2798,7.2868,7.2959,7.302,7.3031,7.3103,7.3153,7.3227,7.329,7.3355,7.3448,7.3524,7.3584,7.3662,7.3703,7.3712,7.3721,7.3719,7.3729,7.3659,7.364,7.3713,7.3713,7.3713,7.3713,7.3713,7.3713,7.2798,7.2887,7.292,7.3036,7.3084,7.3169,7.3209,7.3264,7.3315,7.3418,7.3483,7.3522,7.3585,7.3668,7.3738,7.3753,7.3781,7.379,7.3807,7.3741,7.3734,7.3727,7.3709,7.3795,7.3795,7.3872,7.3873,7.3873]}]]